[[{"header":{"parameterUnit":"m.s-1","parameterCategory":1,"la1":30.2991,"la2":30.254,"lo1":-89.0895,"lo2":-89.0444,"dy":0.0017,"dx":0.0017,"nx":28,"ny":28,"refTime":"2024-10-02T09:00:00:Z","depth":0,"parameterNumber":2,"parameterNumberName":"U-component_of_WINDS"},"data":[0,0,0,0,0,0,0,0,0,0,0,0,0,0,0,0,0,0,0,0,0,0,0,0,0,0,0,0,0,0,0,0,0,0,0,0,0,0,0,0,0,0,0,0,0,0,0,0,0,0,0,0,0,0,0,0,0,0,-0.9057,-0.9057,0,-0.9093,-0.9094,-0.9094,-0.9047,-0.9045,-0.9043,-0.9042,-0.9081,-0.9083,-0.9086,0,0,0,0,0,0,0,0,0,0,0,0,0,-0.8947,-0.8949,-0.9057,-0.9057,-0.9058,-0.9093,-0.9094,-0.9094,-0.9047,-0.9045,-0.9043,-0.9041,-0.908,-0.9083,-0.9086,0,0,0,0,0,0,0,0,0,0,0,0,0,-0.899,-0.895,-0.9057,-0.9038,-0.9037,-0.9093,-0.9094,-0.9095,-0.9048,-0.9045,-0.9042,-0.904,-0.9079,-0.9083,-0.9086,-0.9163,0,0,-0.9099,-0.91,0,0,0,0,0,0,0,0,-0.8988,-0.8994,-0.9041,-0.904,-0.9038,-0.9063,-0.9069,-0.9117,-0.9048,-0.9044,-0.9042,-0.9039,-0.9077,-0.9081,-0.9093,-0.9165,-0.9166,-0.9099,-0.9101,-0.9103,-0.9104,0,0,0,0,0,0,0,-0.8985,-0.8993,-0.9071,-0.9041,-0.904,-0.9029,-0.9032,-0.9078,-0.9074,-0.9044,-0.904,-0.9045,-0.9076,-0.909,-0.9094,-0.9167,-0.9099,-0.9102,-0.9105,-0.9106,-0.9303,-0.9305,0,0,0,0,0,0,-0.8984,-0.899,-0.907,-0.9072,-0.9006,-0.9033,-0.9036,-0.9058,-0.9074,-0.9074,-0.9048,-0.9043,-0.9084,-0.9089,-0.9095,-0.9186,-0.9103,-0.9107,-0.9109,-0.93,-0.9303,-0.9306,0,0,0,0,0,0,-0.8982,-0.8992,-0.9069,-0.9031,-0.9039,-0.9037,-0.9062,-0.906,-0.9074,-0.9077,-0.9076,-0.9063,-0.9082,-0.909,-0.9146,-0.9187,-0.9108,-0.9112,-0.9297,-0.9301,-0.9305,-0.9369,0,0,0,0,0,0,-0.8979,-0.8991,-0.902,-0.9032,-0.9042,-0.9119,-0.9064,-0.9062,-0.9081,-0.9075,-0.909,-0.909,-0.9081,-0.9141,-0.915,-0.9191,-0.9115,-0.9293,-0.9299,-0.9304,-0.9363,-0.9375,-0.9385,0,0,0,0,0,-0.8975,-0.9037,-0.9022,-0.9032,-0.9078,-0.9122,-0.9128,-0.9115,-0.9084,-0.9113,-0.9115,-0.909,-0.918,-0.9147,-0.9157,-0.92,-0.929,-0.9297,-0.9303,-0.9359,-0.9373,-0.9385,0,0,0,0,0,0,-0.9031,-0.9038,-0.9021,-0.9089,-0.9105,-0.9114,-0.915,-0.913,-0.9156,-0.915,-0.9133,-0.9137,-0.9198,-0.9204,-0.9167,-0.9275,-0.923,-0.9239,-0.9269,-0.9282,-0.9293,-0.9291,-0.9118,0,0,0,0,0,-0.9051,-0.9086,-0.909,-0.9149,-0.9158,-0.9153,-0.9172,-0.916,-0.9177,-0.9183,-0.9189,-0.9207,-0.9239,-0.9261,-0.929,-0.9363,-0.9366,-0.9398,-0.9408,-0.9417,-0.9426,-0.9465,-0.948,-0.9327,-0.9327,-0.9327,0,0,-0.9093,-0.9101,-0.9124,-0.916,-0.9172,-0.9209,-0.9159,-0.92,-0.9228,-0.919,-0.9244,-0.9249,-0.9267,-0.9332,-0.9361,-0.9339,-0.9468,-0.9425,-0.9432,-0.9436,-0.9473,-0.9488,-0.9501,-0.9332,-0.9331,-0.933,0,0,-0.9189,-0.9198,-0.9249,-0.9261,-0.9278,-0.9274,-0.9286,-0.9298,-0.9299,-0.9353,-0.9326,-0.9358,-0.9414,-0.9428,-0.9442,-0.9542,-0.9521,-0.9552,-0.961,-0.9649,-0.9661,-0.9671,-0.9708,-0.9722,-0.956,-0.956,-0.956,0,-0.924,-0.9294,-0.9277,-0.932,-0.9337,-0.9304,-0.9355,-0.9367,-0.9394,-0.9407,-0.9381,-0.9451,-0.946,-0.9529,-0.9553,-0.9565,-0.9579,-0.9552,-0.966,-0.967,-0.968,-0.9715,-0.9729,-0.9564,-0.9564,-0.9563,-0.9563,0,-0.9355,-0.9393,-0.9432,-0.9458,-0.9479,-0.9526,-0.9517,-0.954,-0.9527,-0.9525,-0.9581,-0.9591,-0.9622,-0.9637,-0.9624,-0.9704,-0.969,-0.9662,-0.9618,-0.9699,-0.9732,-0.9745,-0.957,-0.9568,-0.9567,-0.9566,0,0,-0.949,-0.9505,-0.952,-0.9531,-0.9547,-0.9577,-0.9622,-0.9652,-0.9673,-0.9692,-0.973,-0.9777,-0.9752,-0.9768,-0.9757,-0.9791,-0.9871,-0.9759,-0.9759,-0.9781,-0.996,-0.9982,-0.9998,-0.9855,-0.9858,-0.986,-0.9959,0,-0.9587,-0.9665,-0.9651,-0.9728,-0.9763,-0.9731,-0.977,-0.9785,-0.9784,-0.9814,-0.9813,-0.9848,-0.9811,-0.9821,-0.9853,-0.9854,-0.9907,-0.9846,-0.9892,-0.9894,-0.9891,-1.0015,-1.0039,-1.0132,-0.9972,-0.9974,-0.9975,0,-0.9711,-0.9735,-0.9815,-0.9825,-0.9839,-0.9875,-0.9902,-0.993,-0.9946,-0.9943,-0.9961,-0.9943,-0.9988,-0.9941,-1.0004,-0.9963,-0.9981,-0.9984,-0.9987,-0.9993,-0.9941,-1.0026,-1.0162,-1.0177,-0.9995,-0.9994,-0.9992,0,-0.9803,-0.9854,-0.9909,-0.992,-0.9933,-0.9959,-0.9966,-0.9978,-0.9997,-1.002,-1.0032,-1.006,-1.0076,-1.0099,-1.0088,-1.0055,-1.0154,-1.0106,-1.0154,-1.0154,-1.0178,-1.0177,-1.0321,-1.0186,-1.0186,-1.0185,-1.0185,0,-0.9915,-0.9965,-0.9951,-0.9985,-1.004,-1.0023,-1.0079,-1.0082,-1.0093,-1.0127,-1.01,-1.0133,-1.0116,-1.0148,-1.014,-1.0194,-1.0201,-1.02,-1.0198,-1.0204,-1.0204,-1.0217,-1.0211,-1.0189,-1.0188,-1.0187,-1.0187,0,-1.0028,-1.002,-1.0078,-1.0085,-1.0088,-1.0129,-1.0135,-1.0167,-1.0163,-1.0207,-1.0216,-1.0211,-1.0247,-1.0238,-1.0277,-1.0272,-1.034,-1.0329,-1.0335,-1.0333,-1.0383,-1.0379,-1.0541,-1.0562,-1.0412,-1.0413,-1.0414,0,-1.0101,-1.0139,-1.015,-1.0171,-1.0179,-1.0213,-1.0232,-1.0216,-1.0237,-1.0257,-1.0287,-1.032,-1.0345,-1.0404,-1.0404,-1.0434,-1.0424,-1.0478,-1.0428,-1.0433,-1.0427,-1.0426,-1.043,-1.0489,-1.0491,-1.0492,-1.0494,0,-1.0231,-1.0225,-1.0254,-1.0281,-1.0304,-1.0325,-1.0343,-1.0361,-1.0347,-1.0372,-1.0407,-1.0427,-1.0466,-1.05,-1.0527,-1.0534,-1.0512,-1.0509,-1.0522,-1.053,-1.0533,-1.0533,-1.0365,-1.0506,-1.0505,-1.0504,-1.0503,-1.0503,-1.0328,-1.0361,-1.0373,-1.0406,-1.0418,-1.0435,-1.0465,-1.0465,-1.0495,-1.0526,-1.0514,-1.0555,-1.0569,-1.0603,-1.0613,-1.0645,-1.0625,-1.0643,-1.0648,-1.0654,-1.0661,-1.0526,-1.065,-1.0649,-1.0649,-1.0649,-1.0649,0,-1.0459,-1.0465,-1.0495,-1.0521,-1.0546,-1.0522,-1.054,-1.0564,-1.06,-1.0615,-1.064,-1.0681,-1.0713,-1.0716,-1.0746,-1.0771,-1.0762,-1.078,-1.0779,-1.0781,-1.0676,-1.0663,-1.0787,-1.0787,-1.0787,-1.0787,-1.0787,-1.0787,-1.053,-1.0584,-1.0579,-1.0639,-1.0644,-1.0685,-1.0698,-1.0713,-1.0725,-1.0772,-1.0798,-1.0799,-1.0809,-1.0839,-1.0868,-1.0867,-1.0881,-1.0903,-1.0899,-1.0802,-1.0788,-1.0775,-1.0763,-1.0905,-1.0905,-1.1001,-1.1002,-1.1003]},{"header":{"parameterUnit":"m.s-1","parameterCategory":1,"la1":30.2991,"la2":30.254,"lo1":-89.0895,"lo2":-89.0444,"dy":0.0017,"dx":0.0017,"nx":28,"ny":28,"refTime":"2024-10-02T09:00:00:Z","depth":0,"parameterNumber":3,"parameterNumberName":"V-component_of_WINDS"},"data":[0,0,0,0,0,0,0,0,0,0,0,0,0,0,0,0,0,0,0,0,0,0,0,0,0,0,0,0,0,0,0,0,0,0,0,0,0,0,0,0,0,0,0,0,0,0,0,0,0,0,0,0,0,0,0,0,0,0,-3.9267,-3.9267,0,-3.9336,-3.9337,-3.9338,-3.9287,-3.9285,-3.9282,-3.928,-3.9346,-3.935,-3.9354,0,0,0,0,0,0,0,0,0,0,0,0,0,-3.9084,-3.9088,-3.9267,-3.9267,-3.9268,-3.9336,-3.9337,-3.9338,-3.9287,-3.9285,-3.9282,-3.9279,-3.9345,-3.935,-3.9354,0,0,0,0,0,0,0,0,0,0,0,0,0,-3.916,-3.9089,-3.9266,-3.9251,-3.9251,-3.9336,-3.9337,-3.9338,-3.9288,-3.9285,-3.9281,-3.9278,-3.9344,-3.9349,-3.9355,-3.9457,0,0,-3.9373,-3.9375,0,0,0,0,0,0,0,0,-3.9155,-3.9166,-3.9253,-3.9253,-3.9252,-3.93,-3.9297,-3.9378,-3.9289,-3.9274,-3.928,-3.9276,-3.9333,-3.934,-3.936,-3.946,-3.9463,-3.9373,-3.9377,-3.9379,-3.9381,0,0,0,0,0,0,0,-3.915,-3.9163,-3.9294,-3.9254,-3.9254,-3.9239,-3.9246,-3.9312,-3.9321,-3.9275,-3.9271,-3.928,-3.9332,-3.9354,-3.9361,-3.9464,-3.9373,-3.9378,-3.9382,-3.9384,-3.965,-3.9654,0,0,0,0,0,0,-3.9147,-3.9159,-3.9292,-3.9296,-3.9195,-3.9245,-3.9253,-3.9288,-3.932,-3.9322,-3.9283,-3.9278,-3.9346,-3.9354,-3.9363,-3.9484,-3.9379,-3.9384,-3.9388,-3.9647,-3.9651,-3.9655,0,0,0,0,0,0,-3.9144,-3.916,-3.9289,-3.9227,-3.9242,-3.9252,-3.9291,-3.9291,-3.9313,-3.9327,-3.9328,-3.9304,-3.9344,-3.9355,-3.9434,-3.9486,-3.9387,-3.9392,-3.9642,-3.9648,-3.9653,-3.9728,0,0,0,0,0,0,-3.9139,-3.9159,-3.9199,-3.9228,-3.9246,-3.9361,-3.9294,-3.9294,-3.9323,-3.9317,-3.9347,-3.9349,-3.9342,-3.9426,-3.944,-3.9492,-3.9397,-3.9638,-3.9645,-3.9651,-3.9721,-3.9735,-3.9748,0,0,0,0,0,-3.9132,-3.9216,-3.9201,-3.9217,-3.9296,-3.9364,-3.9374,-3.9366,-3.9328,-3.9367,-3.9376,-3.9348,-3.9478,-3.9434,-3.945,-3.9504,-3.9635,-3.9643,-3.9651,-3.9715,-3.9732,-3.9747,0,0,0,0,0,0,-3.9191,-3.922,-3.9203,-3.93,-3.933,-3.9355,-3.9405,-3.9385,-3.9425,-3.9417,-3.9405,-3.9412,-3.9495,-3.9507,-3.9458,-3.9604,-3.955,-3.9562,-3.9593,-3.961,-3.9623,-3.9618,-3.9401,0,0,0,0,0,-3.9215,-3.927,-3.9291,-3.9374,-3.939,-3.9395,-3.9424,-3.9416,-3.9446,-3.9458,-3.9472,-3.9501,-3.9548,-3.958,-3.9624,-3.9722,-3.9727,-3.9767,-3.9781,-3.9792,-3.9802,-3.9853,-3.9871,-3.9682,-3.9682,-3.9682,0,0,-3.9266,-3.9288,-3.9323,-3.9386,-3.9409,-3.9463,-3.9406,-3.9466,-3.9506,-3.9466,-3.9543,-3.9554,-3.9585,-3.9674,-3.9714,-3.9687,-3.9855,-3.9802,-3.9811,-3.9815,-3.9864,-3.9882,-3.9898,-3.9688,-3.9686,-3.9686,0,0,-3.9386,-3.9409,-3.948,-3.9504,-3.9539,-3.9542,-3.9559,-3.9588,-3.9595,-3.9671,-3.9642,-3.9689,-3.9771,-3.9794,-3.9817,-3.9945,-3.992,-3.996,-4.0029,-4.008,-4.0095,-4.0108,-4.0153,-4.017,-3.997,-3.997,-3.997,0,-3.9444,-3.9527,-3.9519,-3.9582,-3.961,-3.9578,-3.9649,-3.9672,-3.9719,-3.9738,-3.9708,-3.981,-3.9829,-3.9923,-3.9954,-3.9974,-3.9992,-3.9956,-4.0094,-4.0107,-4.0119,-4.0162,-4.0179,-3.9975,-3.9974,-3.9974,-3.9973,0,-3.9596,-3.9654,-3.9707,-3.9755,-3.9789,-3.9856,-3.9856,-3.9891,-3.9879,-3.9885,-3.9962,-3.9984,-4.0032,-4.0053,-4.0042,-4.0145,-4.0128,-4.0096,-4.0041,-4.0142,-4.0182,-4.0198,-3.9981,-3.998,-3.9978,-3.9977,0,0,-3.9755,-3.9798,-3.9818,-3.9839,-3.9876,-3.9919,-3.9984,-4.0032,-4.0062,-4.0095,-4.0148,-4.0218,-4.0189,-4.0215,-4.0206,-4.0251,-4.035,-4.0213,-4.0214,-4.0237,-4.0464,-4.0488,-4.0507,-4.0334,-4.0337,-4.034,-4.0462,0,-3.9876,-3.9991,-3.9985,-4.0092,-4.0144,-4.0114,-4.017,-4.0198,-4.0204,-4.0248,-4.0255,-4.0305,-4.0263,-4.0278,-4.0321,-4.0329,-4.0396,-4.032,-4.0381,-4.0384,-4.0375,-4.0528,-4.0553,-4.0668,-4.0477,-4.048,-4.0482,0,-4.0033,-4.0074,-4.0187,-4.0215,-4.0237,-4.0287,-4.0331,-4.0374,-4.0404,-4.0406,-4.0435,-4.0418,-4.0481,-4.0425,-4.0511,-4.046,-4.0485,-4.0492,-4.0496,-4.0502,-4.0439,-4.0537,-4.0704,-4.0721,-4.0507,-4.0505,-4.0503,0,-4.0138,-4.022,-4.0298,-4.0317,-4.0352,-4.0389,-4.0405,-4.0431,-4.0461,-4.0498,-4.0517,-4.0561,-4.0585,-4.0618,-4.0613,-4.0573,-4.0701,-4.0644,-4.0702,-4.0703,-4.073,-4.0729,-4.0903,-4.0747,-4.0747,-4.0746,-4.0746,0,-4.0274,-4.0343,-4.0345,-4.0393,-4.047,-4.0462,-4.0537,-4.0549,-4.0573,-4.0621,-4.0597,-4.0642,-4.0634,-4.0678,-4.0674,-4.0746,-4.0757,-4.0759,-4.0757,-4.0761,-4.0761,-4.0776,-4.0768,-4.0751,-4.075,-4.0749,-4.0748,0,-4.0403,-4.0407,-4.049,-4.0517,-4.0525,-4.0581,-4.0603,-4.0647,-4.0652,-4.0713,-4.0727,-4.0733,-4.0785,-4.0783,-4.0841,-4.0839,-4.0926,-4.0915,-4.0917,-4.0915,-4.0973,-4.0967,-4.1164,-4.1189,-4.1016,-4.1018,-4.1019,0,-4.049,-4.0543,-4.0576,-4.0608,-4.0626,-4.0677,-4.0707,-4.0701,-4.0733,-4.0771,-4.0811,-4.086,-4.0899,-4.0982,-4.0991,-4.1035,-4.1025,-4.109,-4.1031,-4.1033,-4.1025,-4.1022,-4.1027,-4.1102,-4.1104,-4.1105,-4.1107,0,-4.0643,-4.0642,-4.0688,-4.0735,-4.0772,-4.0808,-4.084,-4.0867,-4.0864,-4.0901,-4.0954,-4.0985,-4.1044,-4.1093,-4.1135,-4.1149,-4.1128,-4.1125,-4.1141,-4.1146,-4.1144,-4.1145,-4.0948,-4.1121,-4.1119,-4.1118,-4.1118,-4.1117,-4.0753,-4.0799,-4.0829,-4.0881,-4.0905,-4.0936,-4.0979,-4.099,-4.1035,-4.1084,-4.1077,-4.1136,-4.1163,-4.1218,-4.1236,-4.1281,-4.1258,-4.1281,-4.1286,-4.1292,-4.1298,-4.1138,-4.1289,-4.1288,-4.1288,-4.1288,-4.1287,0,-4.0904,-4.0923,-4.097,-4.1018,-4.1058,-4.1036,-4.107,-4.1105,-4.1158,-4.1186,-4.1226,-4.1286,-4.1333,-4.1346,-4.1392,-4.1425,-4.1416,-4.1437,-4.1434,-4.1438,-4.1317,-4.1299,-4.1443,-4.1443,-4.1443,-4.1443,-4.1443,-4.1443,-4.0988,-4.1064,-4.1067,-4.1155,-4.1172,-4.1231,-4.1253,-4.1281,-4.1304,-4.1373,-4.1413,-4.1422,-4.1443,-4.149,-4.1531,-4.1534,-4.1551,-4.1576,-4.1575,-4.1462,-4.1446,-4.1431,-4.1414,-4.158,-4.1581,-4.1691,-4.1692,-4.1693]}]]